Time,TemperatureF,DewpointF,PressureIn,WindDirection,WindDirectionDegrees,WindSpeedMPH,WindSpeedGustMPH,Humidity,HourlyPrecipIn,Conditions,Clouds,dailyrainin,SoftwareType,DateUTC
2013-01-17 00:00:00,38.5,36.7,29.89,NW,315,13.0,19.0,93,0.00,,,0.03,meteohub,2013-01-17 05:00:00,
2013-01-17 00:01:00,38.5,36.7,29.89,NW,315,16.0,19.0,93,0.00,,,0.03,meteohub,2013-01-17 05:01:00,
2013-01-17 00:04:00,38.5,36.3,29.89,NW,315,11.0,19.0,92,0.00,,,0.03,meteohub,2013-01-17 05:04:00,
2013-01-17 00:09:00,38.5,36.3,29.89,NW,315,17.0,18.0,92,0.00,,,0.03,meteohub,2013-01-17 05:09:00,
2013-01-17 00:14:00,38.5,36.3,29.89,NW,315,17.0,17.0,92,0.00,,,0.03,meteohub,2013-01-17 05:14:00,
2013-01-17 00:19:00,38.5,36.3,29.89,NW,315,9.0,17.0,92,0.00,,,0.03,meteohub,2013-01-17 05:19:00,
2013-01-17 00:24:00,38.7,36.5,29.89,NNW,338,14.0,17.0,92,0.00,,,0.03,meteohub,2013-01-17 05:24:00,
2013-01-17 00:30:00,38.5,36.3,29.89,NNW,338,21.0,21.0,92,0.00,,,0.03,meteohub,2013-01-17 05:30:00,
2013-01-17 00:35:00,38.5,36.3,29.89,NW,315,13.0,17.0,92,0.00,,,0.03,meteohub,2013-01-17 05:35:00,
2013-01-17 00:40:00,38.5,36.3,29.89,NW,315,19.0,21.0,92,0.00,,,0.03,meteohub,2013-01-17 05:40:00,
2013-01-17 00:45:00,38.5,36.3,29.89,WNW,293,12.0,19.0,92,0.00,,,0.03,meteohub,2013-01-17 05:45:00,
2013-01-17 00:50:00,38.5,36.3,29.89,NW,315,20.0,20.0,92,0.00,,,0.03,meteohub,2013-01-17 05:50:00,
2013-01-17 00:55:00,38.5,36.3,29.89,NNW,338,14.0,20.0,92,0.00,,,0.03,meteohub,2013-01-17 05:55:00,
2013-01-17 01:00:00,38.7,36.5,29.90,NNW,338,19.0,20.0,92,0.00,,,0.03,meteohub,2013-01-17 06:00:00,
2013-01-17 01:05:00,38.7,36.5,29.90,NNW,338,20.0,20.0,92,0.00,,,0.03,meteohub,2013-01-17 06:05:00,
2013-01-17 01:10:00,38.7,36.5,29.90,West,270,9.0,22.0,92,0.00,,,0.03,meteohub,2013-01-17 06:10:00,
2013-01-17 01:16:00,38.7,36.5,29.90,NW,315,16.0,22.0,92,0.00,,,0.03,meteohub,2013-01-17 06:16:00,
2013-01-17 01:21:00,38.7,36.5,29.90,NW,315,15.0,20.0,92,0.00,,,0.03,meteohub,2013-01-17 06:21:00,
2013-01-17 01:26:00,38.7,36.5,29.90,WNW,293,16.0,16.0,92,0.00,,,0.03,meteohub,2013-01-17 06:26:00,
2013-01-17 01:31:00,38.7,36.5,29.90,NNW,338,12.0,22.0,92,0.00,,,0.03,meteohub,2013-01-17 06:31:00,
2013-01-17 01:36:00,38.7,36.5,29.90,NW,315,14.0,22.0,92,0.00,,,0.03,meteohub,2013-01-17 06:36:00,
2013-01-17 01:41:00,38.7,36.5,29.90,NNW,338,16.0,22.0,92,0.00,,,0.03,meteohub,2013-01-17 06:41:00,
2013-01-17 01:46:00,38.7,36.5,29.90,West,270,14.0,22.0,92,0.00,,,0.03,meteohub,2013-01-17 06:46:00,
2013-01-17 01:51:00,38.7,36.5,29.90,NW,315,17.0,22.0,92,0.00,,,0.03,meteohub,2013-01-17 06:51:00,
2013-01-17 01:56:00,38.7,36.5,29.90,NW,315,13.0,22.0,92,0.00,,,0.03,meteohub,2013-01-17 06:56:00,
2013-01-17 02:01:00,38.7,36.3,29.89,NW,315,23.0,23.0,91,0.00,,,0.03,meteohub,2013-01-17 07:01:00,
2013-01-17 02:07:00,39.0,36.7,29.89,NW,315,15.0,23.0,91,0.00,,,0.03,meteohub,2013-01-17 07:07:00,
2013-01-17 02:12:00,39.0,36.7,29.89,NNW,338,19.0,23.0,91,0.00,,,0.03,meteohub,2013-01-17 07:12:00,
2013-01-17 02:17:00,39.0,36.7,29.89,NW,315,15.0,23.0,91,0.00,,,0.03,meteohub,2013-01-17 07:17:00,
2013-01-17 02:22:00,39.0,36.3,29.89,NNW,338,12.0,19.0,90,0.00,,,0.03,meteohub,2013-01-17 07:22:00,
2013-01-17 02:27:00,39.0,36.3,29.89,NNW,338,17.0,19.0,90,0.00,,,0.03,meteohub,2013-01-17 07:27:00,
2013-01-17 02:32:00,39.0,36.3,29.89,NW,315,21.0,21.0,90,0.00,,,0.03,meteohub,2013-01-17 07:32:00,
2013-01-17 02:37:00,39.0,36.3,29.89,NNW,338,16.0,18.0,90,0.00,,,0.03,meteohub,2013-01-17 07:37:00,
2013-01-17 02:42:00,39.0,36.3,29.89,WNW,293,12.0,21.0,90,0.00,,,0.03,meteohub,2013-01-17 07:42:00,
2013-01-17 02:47:00,39.2,36.5,29.89,NW,315,13.0,21.0,90,0.00,,,0.03,meteohub,2013-01-17 07:47:00,
2013-01-17 02:52:00,39.2,36.5,29.89,NW,315,12.0,18.0,90,0.00,,,0.03,meteohub,2013-01-17 07:52:00,
2013-01-17 02:57:00,39.0,36.3,29.89,NNW,338,16.0,16.0,90,0.00,,,0.03,meteohub,2013-01-17 07:57:00,
2013-01-17 03:02:00,39.2,36.3,29.90,NW,315,12.0,21.0,89,0.00,,,0.03,meteohub,2013-01-17 08:02:00,
2013-01-17 03:07:00,39.2,36.3,29.90,North,0,11.0,21.0,89,0.00,,,0.03,meteohub,2013-01-17 08:07:00,
2013-01-17 03:12:00,39.2,36.3,29.90,North,0,11.0,18.0,89,0.00,,,0.03,meteohub,2013-01-17 08:12:00,
2013-01-17 03:17:00,39.2,36.0,29.90,NW,315,11.0,18.0,88,0.00,,,0.03,meteohub,2013-01-17 08:17:00,
2013-01-17 03:22:00,39.2,36.0,29.89,NW,315,17.0,17.0,88,0.00,,,0.03,meteohub,2013-01-17 08:22:00,
2013-01-17 03:27:00,39.2,36.0,29.89,NW,315,11.0,17.0,88,0.00,,,0.03,meteohub,2013-01-17 08:27:00,
2013-01-17 03:32:00,39.2,36.0,29.89,NW,315,15.0,17.0,88,0.00,,,0.03,meteohub,2013-01-17 08:32:00,
2013-01-17 03:37:00,39.2,36.0,29.89,NW,315,16.0,17.0,88,0.00,,,0.03,meteohub,2013-01-17 08:37:00,
2013-01-17 03:42:00,39.2,35.6,29.90,NW,315,17.0,17.0,87,0.00,,,0.03,meteohub,2013-01-17 08:42:00,
2013-01-17 03:47:00,39.2,35.4,29.90,NW,315,19.0,19.0,86,0.00,,,0.03,meteohub,2013-01-17 08:47:00,
2013-01-17 03:52:00,39.2,35.6,29.90,NW,315,16.0,19.0,87,0.00,,,0.03,meteohub,2013-01-17 08:52:00,
2013-01-17 03:57:00,39.0,35.2,29.90,WNW,293,17.0,19.0,86,0.00,,,0.03,meteohub,2013-01-17 08:57:00,
2013-01-17 04:02:00,39.0,35.2,29.92,NNW,338,17.0,19.0,86,0.00,,,0.03,meteohub,2013-01-17 09:02:00,
2013-01-17 04:07:00,39.0,35.2,29.92,NW,315,20.0,20.0,86,0.00,,,0.03,meteohub,2013-01-17 09:07:00,
2013-01-17 04:12:00,39.0,35.2,29.92,NW,315,17.0,20.0,86,0.00,,,0.03,meteohub,2013-01-17 09:12:00,
2013-01-17 04:17:00,39.2,35.4,29.92,NW,315,16.0,20.0,86,0.00,,,0.03,meteohub,2013-01-17 09:17:00,
2013-01-17 04:22:00,39.2,35.4,29.91,NW,315,20.0,21.0,86,0.00,,,0.03,meteohub,2013-01-17 09:22:00,
2013-01-17 04:27:00,39.4,35.2,29.91,NW,315,17.0,21.0,85,0.00,,,0.03,meteohub,2013-01-17 09:27:00,
2013-01-17 04:32:00,39.4,35.2,29.91,NW,315,20.0,23.0,85,0.00,,,0.03,meteohub,2013-01-17 09:32:00,
2013-01-17 04:37:00,39.4,35.2,29.91,NNW,338,25.0,25.0,85,0.00,,,0.03,meteohub,2013-01-17 09:37:00,
2013-01-17 04:42:00,39.2,34.7,29.91,NNW,338,26.0,26.0,84,0.00,,,0.03,meteohub,2013-01-17 09:42:00,
2013-01-17 04:47:00,39.4,34.9,29.91,NW,315,20.0,26.0,84,0.00,,,0.03,meteohub,2013-01-17 09:47:00,
2013-01-17 04:52:00,39.4,34.7,29.91,NW,315,26.0,26.0,83,0.00,,,0.03,meteohub,2013-01-17 09:52:00,
2013-01-17 04:57:00,39.4,34.9,29.91,NW,315,18.0,26.0,84,0.00,,,0.03,meteohub,2013-01-17 09:57:00,
2013-01-17 05:02:00,39.4,34.7,29.90,NNW,338,19.0,26.0,83,0.00,,,0.03,meteohub,2013-01-17 10:02:00,
2013-01-17 05:07:00,39.4,34.7,29.90,WNW,293,17.0,26.0,83,0.00,,,0.03,meteohub,2013-01-17 10:07:00,
2013-01-17 05:12:00,39.2,34.5,29.90,NW,315,15.0,21.0,83,0.00,,,0.03,meteohub,2013-01-17 10:12:00,
2013-01-17 05:17:00,39.4,34.7,29.90,NW,315,16.0,19.0,83,0.00,,,0.03,meteohub,2013-01-17 10:17:00,
2013-01-17 05:22:00,39.4,34.7,29.90,NW,315,21.0,21.0,83,0.00,,,0.03,meteohub,2013-01-17 10:22:00,
2013-01-17 05:27:00,39.4,34.3,29.90,NW,315,17.0,21.0,82,0.00,,,0.03,meteohub,2013-01-17 10:27:00,
2013-01-17 05:32:00,39.7,34.7,29.90,NNE,23,19.0,21.0,82,0.00,,,0.03,meteohub,2013-01-17 10:32:00,
2013-01-17 05:37:00,39.7,34.7,29.90,NW,315,21.0,21.0,82,0.00,,,0.03,meteohub,2013-01-17 10:37:00,
2013-01-17 05:42:00,39.7,34.3,29.90,NW,315,18.0,21.0,81,0.00,,,0.03,meteohub,2013-01-17 10:42:00,
2013-01-17 05:47:00,39.6,34.2,29.90,NW,315,19.0,21.0,81,0.00,,,0.03,meteohub,2013-01-17 10:47:00,
2013-01-17 05:52:00,39.6,34.2,29.90,North,0,13.0,21.0,81,0.00,,,0.03,meteohub,2013-01-17 10:52:00,
2013-01-17 05:57:00,39.6,34.0,29.90,NW,315,18.0,21.0,80,0.00,,,0.03,meteohub,2013-01-17 10:57:00,
2013-01-17 06:02:00,39.7,34.2,29.91,NW,315,16.0,21.0,80,0.00,,,0.03,meteohub,2013-01-17 11:02:00,
2013-01-17 06:07:00,39.4,33.8,29.91,NW,315,21.0,21.0,80,0.00,,,0.03,meteohub,2013-01-17 11:07:00,
2013-01-17 06:12:00,39.4,33.8,29.91,NW,315,21.0,21.0,80,0.00,,,0.03,meteohub,2013-01-17 11:12:00,
2013-01-17 06:17:00,39.4,33.4,29.91,NW,315,10.0,21.0,79,0.00,,,0.03,meteohub,2013-01-17 11:17:00,
2013-01-17 06:22:00,39.2,33.3,29.93,NW,315,23.0,23.0,79,0.00,,,0.03,meteohub,2013-01-17 11:22:00,
2013-01-17 06:27:00,39.2,32.9,29.93,NW,315,13.0,23.0,78,0.00,,,0.03,meteohub,2013-01-17 11:27:00,
2013-01-17 06:32:00,39.4,33.4,29.93,NNW,338,20.0,23.0,79,0.00,,,0.03,meteohub,2013-01-17 11:32:00,
2013-01-17 06:37:00,39.0,33.1,29.93,NNE,23,16.0,23.0,79,0.00,,,0.03,meteohub,2013-01-17 11:37:00,
2013-01-17 06:42:00,38.8,32.9,29.94,NNE,23,18.0,20.0,79,0.00,,,0.03,meteohub,2013-01-17 11:42:00,
2013-01-17 06:47:00,38.7,32.7,29.94,NNW,338,17.0,20.0,79,0.00,,,0.03,meteohub,2013-01-17 11:47:00,
2013-01-17 06:52:00,38.5,32.5,29.94,NNW,338,20.0,20.0,79,0.00,,,0.03,meteohub,2013-01-17 11:52:00,
2013-01-17 06:57:00,38.5,32.5,29.94,NNW,338,22.0,22.0,79,0.00,,,0.03,meteohub,2013-01-17 11:57:00,
2013-01-17 07:02:00,38.3,32.4,29.95,WNW,293,12.0,22.0,79,0.00,,,0.03,meteohub,2013-01-17 12:02:00,
2013-01-17 07:07:00,38.1,32.2,29.95,NW,315,15.0,22.0,79,0.00,,,0.03,meteohub,2013-01-17 12:07:00,
2013-01-17 07:12:00,37.9,32.0,29.95,NW,315,12.0,22.0,79,0.00,,,0.03,meteohub,2013-01-17 12:12:00,
2013-01-17 07:17:00,37.9,32.4,29.95,West,270,8.0,16.0,80,0.00,,,0.03,meteohub,2013-01-17 12:17:00,
2013-01-17 07:22:00,37.9,32.0,29.95,NNW,338,16.0,16.0,79,0.00,,,0.03,meteohub,2013-01-17 12:22:00,
2013-01-17 07:27:00,37.8,31.8,29.95,NW,315,17.0,17.0,79,0.00,,,0.03,meteohub,2013-01-17 12:27:00,
2013-01-17 07:32:00,37.8,31.8,29.95,NNW,338,14.0,16.0,79,0.00,,,0.03,meteohub,2013-01-17 12:32:00,
2013-01-17 07:37:00,38.1,32.2,29.95,NW,315,12.0,21.0,79,0.00,,,0.03,meteohub,2013-01-17 12:37:00,
2013-01-17 07:42:00,38.3,32.4,29.97,NW,315,16.0,21.0,79,0.00,,,0.03,meteohub,2013-01-17 12:42:00,
2013-01-17 07:47:00,38.3,32.0,29.97,NW,315,17.0,21.0,78,0.00,,,0.03,meteohub,2013-01-17 12:47:00,
2013-01-17 07:52:00,38.5,32.2,29.97,NW,315,14.0,19.0,78,0.00,,,0.03,meteohub,2013-01-17 12:52:00,
2013-01-17 07:57:00,38.7,32.0,29.97,NW,315,18.0,20.0,77,0.00,,,0.03,meteohub,2013-01-17 12:57:00,
2013-01-17 08:02:00,38.7,32.0,29.99,NNW,338,13.0,20.0,77,0.00,,,0.03,meteohub,2013-01-17 13:02:00,
2013-01-17 08:07:00,38.7,32.0,29.99,NNW,338,12.0,20.0,77,0.00,,,0.03,meteohub,2013-01-17 13:07:00,
2013-01-17 08:12:00,38.7,32.4,29.99,NW,315,14.0,20.0,78,0.00,,,0.03,meteohub,2013-01-17 13:12:00,
2013-01-17 08:17:00,39.0,32.4,29.99,NNW,338,17.0,20.0,77,0.00,,,0.03,meteohub,2013-01-17 13:17:00,
2013-01-17 08:22:00,39.0,32.4,30.00,NNW,338,15.0,20.0,77,0.00,,,0.03,meteohub,2013-01-17 13:22:00,
2013-01-17 08:27:00,39.2,32.5,30.00,NW,315,21.0,21.0,77,0.00,,,0.03,meteohub,2013-01-17 13:27:00,
2013-01-17 08:32:00,39.2,32.4,30.00,WNW,293,13.0,21.0,76,0.00,,,0.03,meteohub,2013-01-17 13:32:00,
2013-01-17 08:37:00,39.0,32.4,30.00,NNW,338,12.0,21.0,77,0.00,,,0.03,meteohub,2013-01-17 13:37:00,
2013-01-17 08:42:00,39.0,32.4,30.01,NNW,338,13.0,21.0,77,0.00,,,0.03,meteohub,2013-01-17 13:42:00,
2013-01-17 08:47:00,39.0,32.4,30.01,NW,315,17.0,17.0,77,0.00,,,0.03,meteohub,2013-01-17 13:47:00,
2013-01-17 08:52:00,39.2,32.5,30.01,NNW,338,21.0,23.0,77,0.00,,,0.03,meteohub,2013-01-17 13:52:00,
2013-01-17 08:57:00,39.2,32.4,30.01,NNE,23,14.0,23.0,76,0.00,,,0.03,meteohub,2013-01-17 13:57:00,
2013-01-17 09:02:00,39.2,32.4,30.02,NW,315,20.0,23.0,76,0.00,,,0.03,meteohub,2013-01-17 14:02:00,
2013-01-17 09:07:00,39.0,32.2,30.02,NW,315,13.0,21.0,76,0.00,,,0.03,meteohub,2013-01-17 14:07:00,
2013-01-17 09:12:00,39.0,32.2,30.02,NW,315,13.0,20.0,76,0.00,,,0.03,meteohub,2013-01-17 14:12:00,
2013-01-17 09:17:00,39.0,32.2,30.02,NW,315,12.0,20.0,76,0.00,,,0.03,meteohub,2013-01-17 14:17:00,
2013-01-17 09:22:00,39.2,32.4,30.02,NW,315,10.0,16.0,76,0.00,,,0.03,meteohub,2013-01-17 14:22:00,
2013-01-17 09:27:00,39.2,32.4,30.02,NNW,338,10.0,16.0,76,0.00,,,0.03,meteohub,2013-01-17 14:27:00,
2013-01-17 09:32:00,39.7,32.5,30.02,NW,315,13.0,16.0,75,0.00,,,0.03,meteohub,2013-01-17 14:32:00,
2013-01-17 09:37:00,39.7,32.5,30.02,NW,315,11.0,12.0,75,0.00,,,0.03,meteohub,2013-01-17 14:37:00,
2013-01-17 09:42:00,39.7,32.5,30.03,NNW,338,13.0,14.0,75,0.00,,,0.03,meteohub,2013-01-17 14:42:00,
2013-01-17 09:47:00,39.6,32.4,30.03,NNW,338,11.0,15.0,75,0.00,,,0.03,meteohub,2013-01-17 14:47:00,
2013-01-17 09:52:00,39.4,32.5,30.03,NW,315,13.0,15.0,76,0.00,,,0.03,meteohub,2013-01-17 14:52:00,
2013-01-17 09:57:00,39.7,32.7,30.03,NW,315,12.0,15.0,76,0.00,,,0.03,meteohub,2013-01-17 14:57:00,
2013-01-17 10:02:00,39.7,32.7,30.04,NW,315,13.0,13.0,76,0.00,,,0.03,meteohub,2013-01-17 15:02:00,
2013-01-17 10:07:00,39.2,32.4,30.04,NNW,338,10.0,13.0,76,0.00,,,0.03,meteohub,2013-01-17 15:07:00,
2013-01-17 10:12:00,39.2,32.4,30.04,NW,315,13.0,13.0,76,0.00,,,0.03,meteohub,2013-01-17 15:12:00,
2013-01-17 10:17:00,39.7,32.7,30.04,NNW,338,13.0,16.0,76,0.00,,,0.03,meteohub,2013-01-17 15:17:00,
2013-01-17 10:22:00,39.7,32.7,30.02,NNW,338,12.0,16.0,76,0.00,,,0.03,meteohub,2013-01-17 15:22:00,
2013-01-17 10:27:00,39.6,32.4,30.02,NNE,23,11.0,16.0,75,0.00,,,0.03,meteohub,2013-01-17 15:27:00,
2013-01-17 10:32:00,39.7,32.7,30.02,NW,315,8.0,16.0,76,0.00,,,0.03,meteohub,2013-01-17 15:32:00,
2013-01-17 10:37:00,40.1,33.1,30.02,NNE,23,10.0,15.0,76,0.00,,,0.03,meteohub,2013-01-17 15:37:00,
2013-01-17 10:42:00,40.1,33.1,30.04,NW,315,10.0,15.0,76,0.00,,,0.03,meteohub,2013-01-17 15:42:00,
2013-01-17 10:47:00,40.6,33.3,30.04,NW,315,11.0,12.0,75,0.00,,,0.03,meteohub,2013-01-17 15:47:00,
2013-01-17 10:52:00,40.8,33.4,30.04,North,0,9.0,15.0,75,0.00,,,0.03,meteohub,2013-01-17 15:52:00,
2013-01-17 10:57:00,41.5,34.2,30.04,NNE,23,7.0,15.0,75,0.00,,,0.03,meteohub,2013-01-17 15:57:00,
2013-01-17 11:02:00,41.9,34.2,30.02,North,0,11.0,12.0,74,0.00,,,0.03,meteohub,2013-01-17 16:02:00,
2013-01-17 11:07:00,41.7,33.4,30.02,NNE,23,9.0,13.0,72,0.00,,,0.03,meteohub,2013-01-17 16:07:00,
2013-01-17 11:12:00,41.5,33.3,30.02,NNW,338,5.0,13.0,72,0.00,,,0.03,meteohub,2013-01-17 16:12:00,
2013-01-17 11:17:00,41.9,33.3,30.02,NNW,338,15.0,15.0,71,0.00,,,0.03,meteohub,2013-01-17 16:17:00,
2013-01-17 11:22:00,41.9,32.9,30.02,NNW,338,16.0,16.0,70,0.00,,,0.03,meteohub,2013-01-17 16:22:00,
2013-01-17 11:27:00,41.9,32.5,30.02,North,0,12.0,16.0,69,0.00,,,0.03,meteohub,2013-01-17 16:27:00,
2013-01-17 11:32:00,41.9,32.2,30.02,NNE,23,13.0,21.0,68,0.00,,,0.03,meteohub,2013-01-17 16:32:00,
2013-01-17 11:37:00,41.9,32.5,30.02,NNW,338,9.0,21.0,69,0.00,,,0.03,meteohub,2013-01-17 16:37:00,
2013-01-17 11:42:00,42.3,32.5,30.01,NNW,338,13.0,21.0,68,0.00,,,0.03,meteohub,2013-01-17 16:42:00,
2013-01-17 11:47:00,42.6,32.7,30.01,NNW,338,21.0,21.0,68,0.00,,,0.03,meteohub,2013-01-17 16:47:00,
2013-01-17 11:52:00,43.0,32.7,30.01,NNW,338,13.0,21.0,67,0.00,,,0.03,meteohub,2013-01-17 16:52:00,
2013-01-17 11:57:00,43.0,32.7,30.01,NNW,338,11.0,21.0,67,0.00,,,0.03,meteohub,2013-01-17 16:57:00,
2013-01-17 12:03:00,43.3,33.1,30.01,North,0,9.0,21.0,67,0.00,,,0.03,meteohub,2013-01-17 17:03:00,
2013-01-17 12:08:00,43.3,33.1,30.01,NW,315,16.0,17.0,67,0.00,,,0.03,meteohub,2013-01-17 17:08:00,
2013-01-17 12:13:00,43.3,33.1,30.01,NW,315,16.0,17.0,67,0.00,,,0.03,meteohub,2013-01-17 17:13:00,
2013-01-17 12:18:00,42.6,32.0,30.01,NNW,338,14.0,17.0,66,0.00,,,0.03,meteohub,2013-01-17 17:18:00,
2013-01-17 12:23:00,42.3,32.2,30.01,NW,315,8.0,16.0,67,0.00,,,0.03,meteohub,2013-01-17 17:23:00,
2013-01-17 12:28:00,42.1,32.4,30.01,NNW,338,18.0,18.0,68,0.00,,,0.03,meteohub,2013-01-17 17:28:00,
2013-01-17 12:33:00,42.4,32.2,30.01,NNW,338,14.0,17.0,67,0.00,,,0.03,meteohub,2013-01-17 17:33:00,
2013-01-17 12:38:00,43.3,33.1,30.01,North,0,14.0,18.0,67,0.00,,,0.03,meteohub,2013-01-17 17:38:00,
2013-01-17 12:43:00,43.5,33.3,30.01,West,270,9.0,18.0,67,0.00,,,0.03,meteohub,2013-01-17 17:43:00,
2013-01-17 12:49:00,43.9,33.3,30.01,NNW,338,9.0,17.0,66,0.00,,,0.03,meteohub,2013-01-17 17:49:00,
2013-01-17 12:54:00,43.5,32.5,30.01,NW,315,9.0,17.0,65,0.00,,,0.03,meteohub,2013-01-17 17:54:00,
2013-01-17 12:59:00,43.2,32.2,30.02,NNW,338,13.0,17.0,65,0.00,,,0.03,meteohub,2013-01-17 17:59:00,
2013-01-17 13:04:00,43.5,32.5,30.02,NW,315,12.0,16.0,65,0.00,,,0.03,meteohub,2013-01-17 18:04:00,
2013-01-17 13:09:00,44.1,33.1,30.02,NNW,338,16.0,16.0,65,0.00,,,0.03,meteohub,2013-01-17 18:09:00,
2013-01-17 13:14:00,44.1,32.7,30.02,NNW,338,16.0,16.0,64,0.00,,,0.03,meteohub,2013-01-17 18:14:00,
2013-01-17 13:19:00,43.7,32.7,30.01,NNE,23,11.0,16.0,65,0.00,,,0.03,meteohub,2013-01-17 18:19:00,
2013-01-17 13:24:00,44.2,32.9,30.01,NNW,338,9.0,16.0,64,0.00,,,0.03,meteohub,2013-01-17 18:24:00,
2013-01-17 13:29:00,44.6,33.3,30.01,NNE,23,9.0,16.0,64,0.00,,,0.03,meteohub,2013-01-17 18:29:00,
2013-01-17 13:34:00,45.0,33.1,30.01,NNE,23,15.0,15.0,63,0.00,,,0.03,meteohub,2013-01-17 18:34:00,
2013-01-17 13:40:00,45.0,33.1,30.02,NNW,338,16.0,16.0,63,0.00,,,0.03,meteohub,2013-01-17 18:40:00,
2013-01-17 13:45:00,45.1,32.9,30.02,NNW,338,12.0,16.0,62,0.00,,,0.03,meteohub,2013-01-17 18:45:00,
2013-01-17 13:50:00,45.5,32.9,30.02,NW,315,13.0,16.0,61,0.00,,,0.03,meteohub,2013-01-17 18:50:00,
2013-01-17 13:55:00,45.0,32.4,30.02,North,0,17.0,17.0,61,0.00,,,0.03,meteohub,2013-01-17 18:55:00,
2013-01-17 14:00:00,44.2,32.0,30.02,NNE,23,8.0,17.0,62,0.00,,,0.03,meteohub,2013-01-17 19:00:00,
2013-01-17 14:05:00,44.1,32.4,30.02,NNE,23,11.0,17.0,63,0.00,,,0.03,meteohub,2013-01-17 19:05:00,
2013-01-17 14:10:00,43.9,32.2,30.02,North,0,11.0,17.0,63,0.00,,,0.03,meteohub,2013-01-17 19:10:00,
2013-01-17 14:15:00,43.9,32.5,30.02,ENE,68,8.0,11.0,64,0.00,,,0.03,meteohub,2013-01-17 19:15:00,
2013-01-17 14:20:00,43.9,32.2,30.03,NNE,23,10.0,11.0,63,0.00,,,0.03,meteohub,2013-01-17 19:20:00,
2013-01-17 14:26:00,44.1,32.7,30.03,NNE,23,6.0,11.0,64,0.00,,,0.03,meteohub,2013-01-17 19:26:00,
2013-01-17 14:31:00,44.1,32.7,30.03,NNE,23,4.0,10.0,64,0.00,,,0.03,meteohub,2013-01-17 19:31:00,
2013-01-17 14:36:00,44.2,32.9,30.03,ENE,68,6.0,10.0,64,0.00,,,0.03,meteohub,2013-01-17 19:36:00,
2013-01-17 14:41:00,44.4,33.1,30.02,NNE,23,5.0,10.0,64,0.00,,,0.03,meteohub,2013-01-17 19:41:00,
2013-01-17 14:46:00,44.8,33.8,30.02,NE,45,10.0,10.0,65,0.00,,,0.03,meteohub,2013-01-17 19:46:00,
2013-01-17 14:51:00,45.1,34.2,30.02,NE,45,8.0,11.0,65,0.00,,,0.03,meteohub,2013-01-17 19:51:00,
2013-01-17 14:56:00,45.0,34.0,30.02,NNE,23,3.0,11.0,65,0.00,,,0.03,meteohub,2013-01-17 19:56:00,
2013-01-17 15:01:00,45.0,34.0,30.02,North,0,7.0,11.0,65,0.00,,,0.03,meteohub,2013-01-17 20:01:00,
2013-01-17 15:06:00,45.1,33.6,30.02,NE,45,7.0,10.0,64,0.00,,,0.03,meteohub,2013-01-17 20:06:00,
2013-01-17 15:11:00,45.1,34.2,30.02,North,0,7.0,8.0,65,0.00,,,0.03,meteohub,2013-01-17 20:11:00,
2013-01-17 15:16:00,45.0,33.4,30.02,NNE,23,14.0,14.0,64,0.00,,,0.03,meteohub,2013-01-17 20:16:00,
2013-01-17 15:22:00,44.6,33.3,30.02,North,0,5.0,11.0,64,0.00,,,0.03,meteohub,2013-01-17 20:22:00,
2013-01-17 15:27:00,44.6,33.6,30.02,ESE,113,8.0,14.0,65,0.00,,,0.03,meteohub,2013-01-17 20:27:00,
2013-01-17 15:32:00,44.2,32.9,30.02,NNE,23,4.0,14.0,64,0.00,,,0.03,meteohub,2013-01-17 20:32:00,
2013-01-17 15:37:00,44.1,33.1,30.02,ENE,68,10.0,10.0,65,0.00,,,0.03,meteohub,2013-01-17 20:37:00,
2013-01-17 15:42:00,43.7,32.7,30.04,East,90,9.0,10.0,65,0.00,,,0.03,meteohub,2013-01-17 20:42:00,
2013-01-17 15:47:00,43.5,32.2,30.04,NE,45,5.0,10.0,64,0.00,,,0.03,meteohub,2013-01-17 20:47:00,
2013-01-17 15:52:00,43.2,32.2,30.04,NNE,23,3.0,10.0,65,0.00,,,0.03,meteohub,2013-01-17 20:52:00,
2013-01-17 15:57:00,43.3,32.4,30.04,ENE,68,7.0,9.0,65,0.00,,,0.03,meteohub,2013-01-17 20:57:00,
2013-01-17 16:02:00,42.8,32.2,30.04,NNE,23,3.0,7.0,66,0.00,,,0.03,meteohub,2013-01-17 21:02:00,
2013-01-17 16:07:00,42.6,32.0,30.04,NNE,23,4.0,7.0,66,0.00,,,0.03,meteohub,2013-01-17 21:07:00,
2013-01-17 16:12:00,42.4,31.8,30.04,NE,45,3.0,7.0,66,0.00,,,0.03,meteohub,2013-01-17 21:12:00,
2013-01-17 16:18:00,42.6,32.0,30.04,WNW,293,5.0,7.0,66,0.00,,,0.03,meteohub,2013-01-17 21:18:00,
2013-01-17 16:23:00,42.1,31.5,30.04,NE,45,5.0,7.0,66,0.00,,,0.03,meteohub,2013-01-17 21:23:00,
2013-01-17 16:28:00,42.1,32.0,30.04,NE,45,8.0,8.0,67,0.00,,,0.03,meteohub,2013-01-17 21:28:00,
2013-01-17 16:33:00,41.9,31.5,30.04,NNE,23,4.0,6.0,66,0.00,,,0.03,meteohub,2013-01-17 21:33:00,
2013-01-17 16:38:00,41.9,31.8,30.05,NNE,23,5.0,8.0,67,0.00,,,0.03,meteohub,2013-01-17 21:38:00,
2013-01-17 16:43:00,41.7,31.6,30.05,NNE,23,4.0,8.0,67,0.00,,,0.03,meteohub,2013-01-17 21:43:00,
2013-01-17 16:48:00,41.4,31.3,30.05,NE,45,4.0,7.0,67,0.00,,,0.03,meteohub,2013-01-17 21:48:00,
2013-01-17 16:53:00,41.4,31.6,30.05,NNE,23,4.0,7.0,68,0.00,,,0.03,meteohub,2013-01-17 21:53:00,
2013-01-17 16:59:00,41.4,31.6,30.07,ENE,68,2.0,7.0,68,0.00,,,0.03,meteohub,2013-01-17 21:59:00,
2013-01-17 17:04:00,41.4,31.6,30.07,NE,45,4.0,6.0,68,0.00,,,0.03,meteohub,2013-01-17 22:04:00,
2013-01-17 17:09:00,41.2,31.5,30.07,NE,45,3.0,4.0,68,0.00,,,0.03,meteohub,2013-01-17 22:09:00,
2013-01-17 17:14:00,41.0,31.3,30.07,NE,45,3.0,4.0,68,0.00,,,0.03,meteohub,2013-01-17 22:14:00,
2013-01-17 17:19:00,41.2,31.8,30.07,NNE,23,4.0,4.0,69,0.00,,,0.03,meteohub,2013-01-17 22:19:00,
2013-01-17 17:24:00,40.8,31.8,30.07,NNE,23,0.0,3.0,70,0.00,,,0.03,meteohub,2013-01-17 22:24:00,
2013-01-17 17:29:00,40.8,31.8,30.07,ENE,68,3.0,4.0,70,0.00,,,0.03,meteohub,2013-01-17 22:29:00,
2013-01-17 17:34:00,40.6,31.6,30.07,NE,45,4.0,4.0,70,0.00,,,0.03,meteohub,2013-01-17 22:34:00,
2013-01-17 17:40:00,40.6,31.6,30.08,NE,45,4.0,4.0,70,0.00,,,0.03,meteohub,2013-01-17 22:40:00,
2013-01-17 17:45:00,40.8,31.8,30.08,NNE,23,5.0,5.0,70,0.00,,,0.03,meteohub,2013-01-17 22:45:00,
2013-01-17 17:50:00,40.6,31.6,30.08,NNE,23,4.0,5.0,70,0.00,,,0.03,meteohub,2013-01-17 22:50:00,
2013-01-17 17:55:00,40.5,31.1,30.08,NE,45,6.0,6.0,69,0.00,,,0.03,meteohub,2013-01-17 22:55:00,
2013-01-17 18:00:00,40.5,31.1,30.08,NE,45,4.0,6.0,69,0.00,,,0.03,meteohub,2013-01-17 23:00:00,
2013-01-17 18:05:00,40.5,31.1,30.08,NNE,23,4.0,6.0,69,0.00,,,0.03,meteohub,2013-01-17 23:05:00,
2013-01-17 18:10:00,40.1,30.7,30.08,NNE,23,4.0,6.0,69,0.00,,,0.03,meteohub,2013-01-17 23:10:00,
2013-01-17 18:16:00,40.1,30.7,30.08,ENE,68,5.0,6.0,69,0.00,,,0.03,meteohub,2013-01-17 23:16:00,
2013-01-17 18:21:00,40.1,30.7,30.09,NNE,23,2.0,6.0,69,0.00,,,0.03,meteohub,2013-01-17 23:21:00,
2013-01-17 18:26:00,40.1,30.7,30.09,NNE,23,5.0,7.0,69,0.00,,,0.03,meteohub,2013-01-17 23:26:00,
2013-01-17 18:31:00,39.9,30.6,30.09,ENE,68,7.0,7.0,69,0.00,,,0.03,meteohub,2013-01-17 23:31:00,
2013-01-17 18:36:00,39.9,30.9,30.09,NNE,23,1.0,7.0,70,0.00,,,0.03,meteohub,2013-01-17 23:36:00,
2013-01-17 18:41:00,40.1,31.1,30.08,North,0,3.0,7.0,70,0.00,,,0.03,meteohub,2013-01-17 23:41:00,
2013-01-17 18:47:00,39.9,30.9,30.08,ESE,113,2.0,7.0,70,0.00,,,0.03,meteohub,2013-01-17 23:47:00,
2013-01-17 18:52:00,39.9,30.9,30.08,NW,315,6.0,6.0,70,0.00,,,0.03,meteohub,2013-01-17 23:52:00,
2013-01-17 18:57:00,39.9,30.9,30.08,NNE,23,3.0,6.0,70,0.00,,,0.03,meteohub,2013-01-17 23:57:00,
2013-01-17 19:02:00,39.7,30.7,30.09,NNE,23,3.0,6.0,70,0.00,,,0.03,meteohub,2013-01-18 00:02:00,
2013-01-17 19:07:00,39.7,30.7,30.09,SW,225,5.0,8.0,70,0.00,,,0.00,meteohub,2013-01-18 00:07:00,
2013-01-17 19:13:00,39.7,30.7,30.09,NNE,23,3.0,8.0,70,0.00,,,0.00,meteohub,2013-01-18 00:13:00,
2013-01-17 19:18:00,39.7,31.1,30.09,ENE,68,3.0,8.0,71,0.00,,,0.00,meteohub,2013-01-18 00:18:00,
2013-01-17 19:23:00,39.7,31.1,30.08,ENE,68,6.0,6.0,71,0.00,,,0.00,meteohub,2013-01-18 00:23:00,
2013-01-17 19:28:00,39.7,31.1,30.08,ENE,68,9.0,9.0,71,0.00,,,0.00,meteohub,2013-01-18 00:28:00,
2013-01-17 19:33:00,39.7,30.7,30.08,ESE,113,6.0,6.0,70,0.00,,,0.00,meteohub,2013-01-18 00:33:00,
2013-01-17 19:39:00,39.7,30.7,30.09,NE,45,11.0,12.0,70,0.00,,,0.00,meteohub,2013-01-18 00:39:00,
2013-01-17 19:44:00,39.4,30.4,30.09,East,90,6.0,12.0,70,0.00,,,0.00,meteohub,2013-01-18 00:44:00,
2013-01-17 19:49:00,39.4,30.4,30.09,NNE,23,8.0,12.0,70,0.00,,,0.00,meteohub,2013-01-18 00:49:00,
2013-01-17 19:55:00,39.2,30.2,30.09,NNE,23,5.0,11.0,70,0.00,,,0.00,meteohub,2013-01-18 00:55:00,
2013-01-17 20:00:00,39.2,30.2,30.07,NE,45,7.0,11.0,70,0.00,,,0.00,meteohub,2013-01-18 01:00:00,
2013-01-17 20:05:00,39.0,30.0,30.07,NE,45,10.0,11.0,70,0.00,,,0.00,meteohub,2013-01-18 01:05:00,
2013-01-17 20:10:00,39.0,29.7,30.07,ENE,68,6.0,10.0,69,0.00,,,0.00,meteohub,2013-01-18 01:10:00,
2013-01-17 20:15:00,38.8,29.5,30.07,NE,45,13.0,13.0,69,0.00,,,0.00,meteohub,2013-01-18 01:15:00,
2013-01-17 20:21:00,38.5,29.1,30.07,NNE,23,9.0,13.0,69,0.00,,,0.00,meteohub,2013-01-18 01:21:00,
2013-01-17 20:26:00,38.5,29.1,30.07,NE,45,6.0,13.0,69,0.00,,,0.00,meteohub,2013-01-18 01:26:00,
2013-01-17 20:31:00,38.5,28.8,30.07,ENE,68,7.0,13.0,68,0.00,,,0.00,meteohub,2013-01-18 01:31:00,
2013-01-17 20:36:00,38.1,28.6,30.07,NNE,23,15.0,15.0,68,0.00,,,0.00,meteohub,2013-01-18 01:36:00,
2013-01-17 20:41:00,38.1,28.2,30.08,NE,45,10.0,15.0,67,0.00,,,0.00,meteohub,2013-01-18 01:41:00,
2013-01-17 20:47:00,37.9,28.0,30.08,NE,45,9.0,15.0,67,0.00,,,0.00,meteohub,2013-01-18 01:47:00,
2013-01-17 20:52:00,37.9,28.0,30.08,NE,45,8.0,15.0,67,0.00,,,0.00,meteohub,2013-01-18 01:52:00,
2013-01-17 20:57:00,37.8,27.9,30.08,ENE,68,9.0,10.0,67,0.00,,,0.00,meteohub,2013-01-18 01:57:00,
2013-01-17 21:02:00,37.6,27.7,30.08,East,90,3.0,10.0,67,0.00,,,0.00,meteohub,2013-01-18 02:02:00,
2013-01-17 21:07:00,37.6,27.3,30.08,NE,45,13.0,13.0,66,0.00,,,0.00,meteohub,2013-01-18 02:07:00,
2013-01-17 21:12:00,37.6,27.3,30.08,NE,45,13.0,13.0,66,0.00,,,0.00,meteohub,2013-01-18 02:12:00,
2013-01-17 21:17:00,37.0,25.7,30.08,ENE,68,8.0,13.0,63,0.00,,,0.00,meteohub,2013-01-18 02:17:00,
2013-01-17 21:22:00,37.0,26.1,30.07,NNE,23,8.0,13.0,64,0.00,,,0.00,meteohub,2013-01-18 02:22:00,
2013-01-17 21:27:00,36.7,25.0,30.07,NNE,23,9.0,13.0,62,0.00,,,0.00,meteohub,2013-01-18 02:27:00,
2013-01-17 21:32:00,36.9,25.0,30.07,NNE,23,15.0,15.0,62,0.00,,,0.00,meteohub,2013-01-18 02:32:00,
2013-01-17 21:37:00,36.5,24.8,30.07,ENE,68,12.0,15.0,62,0.00,,,0.00,meteohub,2013-01-18 02:37:00,
2013-01-17 21:42:00,36.3,24.6,30.06,ENE,68,8.0,15.0,62,0.00,,,0.00,meteohub,2013-01-18 02:42:00,
2013-01-17 21:47:00,36.3,24.6,30.06,ENE,68,10.0,17.0,62,0.00,,,0.00,meteohub,2013-01-18 02:47:00,
2013-01-17 21:52:00,36.3,24.6,30.06,ENE,68,5.0,17.0,62,0.00,,,0.00,meteohub,2013-01-18 02:52:00,
2013-01-17 21:57:00,36.1,24.4,30.06,NE,45,8.0,13.0,62,0.00,,,0.00,meteohub,2013-01-18 02:57:00,
2013-01-17 22:02:00,36.1,24.4,30.08,NE,45,9.0,13.0,62,0.00,,,0.00,meteohub,2013-01-18 03:02:00,
2013-01-17 22:07:00,36.1,24.4,30.08,NNE,23,9.0,10.0,62,0.00,,,0.00,meteohub,2013-01-18 03:07:00,
2013-01-17 22:12:00,36.0,24.3,30.08,NE,45,5.0,10.0,62,0.00,,,0.00,meteohub,2013-01-18 03:12:00,
2013-01-17 22:17:00,36.0,24.3,30.08,NE,45,11.0,11.0,62,0.00,,,0.00,meteohub,2013-01-18 03:17:00,
2013-01-17 22:22:00,35.8,24.4,30.07,NE,45,10.0,11.0,63,0.00,,,0.00,meteohub,2013-01-18 03:22:00,
2013-01-17 22:27:00,35.6,24.6,30.07,ENE,68,10.0,11.0,64,0.00,,,0.00,meteohub,2013-01-18 03:27:00,
2013-01-17 22:32:00,35.4,24.4,30.07,NE,45,12.0,12.0,64,0.00,,,0.00,meteohub,2013-01-18 03:32:00,
2013-01-17 22:38:00,35.4,24.4,30.07,ENE,68,12.0,12.0,64,0.00,,,0.00,meteohub,2013-01-18 03:38:00,
2013-01-17 22:43:00,35.4,24.1,30.05,NE,45,16.0,16.0,63,0.00,,,0.00,meteohub,2013-01-18 03:43:00,
2013-01-17 22:48:00,35.1,23.7,30.05,NE,45,12.0,17.0,63,0.00,,,0.00,meteohub,2013-01-18 03:48:00,
2013-01-17 22:53:00,34.9,23.2,30.05,ENE,68,16.0,17.0,62,0.00,,,0.00,meteohub,2013-01-18 03:53:00,
2013-01-17 22:58:00,34.9,23.2,30.00,ENE,68,15.0,17.0,62,0.00,,,0.00,meteohub,2013-01-18 03:58:00,
2013-01-17 23:03:00,34.9,23.2,30.00,ENE,68,14.0,17.0,62,0.00,,,0.00,meteohub,2013-01-18 04:03:00,
2013-01-17 23:08:00,34.7,22.6,30.00,East,90,10.0,17.0,61,0.00,,,0.00,meteohub,2013-01-18 04:08:00,
2013-01-17 23:13:00,34.7,23.0,30.00,ENE,68,9.0,17.0,62,0.00,,,0.00,meteohub,2013-01-18 04:13:00,
2013-01-17 23:19:00,34.7,23.4,30.04,ENE,68,8.0,15.0,63,0.00,,,0.00,meteohub,2013-01-18 04:19:00,
2013-01-17 23:24:00,34.7,23.4,30.04,ESE,113,9.0,12.0,63,0.00,,,0.00,meteohub,2013-01-18 04:24:00,
2013-01-17 23:29:00,34.7,23.4,30.04,NE,45,9.0,12.0,63,0.00,,,0.00,meteohub,2013-01-18 04:29:00,
2013-01-17 23:34:00,34.7,23.0,30.04,ENE,68,10.0,10.0,62,0.00,,,0.00,meteohub,2013-01-18 04:34:00,
2013-01-17 23:39:00,34.7,23.4,30.04,NE,45,13.0,13.0,63,0.00,,,0.00,meteohub,2013-01-18 04:39:00,
2013-01-17 23:44:00,34.7,23.4,30.04,ENE,68,13.0,13.0,63,0.00,,,0.00,meteohub,2013-01-18 04:44:00,
2013-01-17 23:49:00,34.7,23.0,30.04,ENE,68,12.0,13.0,62,0.00,,,0.00,meteohub,2013-01-18 04:49:00,
2013-01-17 23:54:00,34.7,23.4,30.04,NE,45,12.0,13.0,63,0.00,,,0.00,meteohub,2013-01-18 04:54:00,
2013-01-17 23:59:00,34.7,23.0,30.05,NE,45,7.0,13.0,62,0.00,,,0.00,meteohub,2013-01-18 04:59:00,